Weather History for Cleveland, OH

Change the Weather History Date:

Tuesday, May 6, 2014

  Actual Average Record
Temperature  
Mean Temperature 49 °F 57 °F  
Max Temperature 59 °F 67 °F 92 °F (1959)
Min Temperature 38 °F 47 °F 26 °F (1968)
Degree Days  
Heating Degree Days 16 9  
Month to date heating degree days 79 58  
Since 1 July heating degree days 6194 5569  
Cooling Degree Days 0 1  
Month to date cooling degree days 0 6  
Year to date cooling degree days 7 17  
Moisture  
Dew Point 36 °F    
Average Humidity 63    
Maximum Humidity 86    
Minimum Humidity 40    
Precipitation  
Precipitation 0.00 in 0.11 in 0.77 in (1971)
Month to date precipitation 0.04 0.67  
Year to date precipitation 12.23 12.15  
Snow  
Snow 0.00 in 0.00 in - ()
Month to date snowfall 0.0 0.1  
Since 1 July snowfall 86.1 68.2  
Snow Depth 0.00 in    
Sea Level Pressure  
Sea Level Pressure 30.07 in    
Wind  
Wind Speed 9 mph (NNE)    
Max Wind Speed 18 mph    
Max Gust Speed 21 mph    
Visibility 10 miles    
Events      
T = Trace of Precipitation, MM = Missing Value Source: NWS Daily Summary

Daily Weather History Graph

Daily Weather History Graph

Search for Another Location

Airport:

Trip Planner

Search our weather history database for the weather conditions in past years. The results will help you decide how hot, cold, wet, or windy it might be!

Date:

Astronomy

May. 06, 2014 Rise Set
Actual Time 6:18 AM EDT 8:30 PM EDT
Civil Twilight 5:47 AM EDT 9:01 PM EDT
Nautical Twilight 5:10 AM EDT 9:38 PM EDT
Astronomical Twilight 4:28 AM EDT 10:20 PM EDT
Moon 12:34 PM EDT (5/6) 1:48 AM EDT (5/6)
Length of Visible Light 15h 13m
Length of Day
14h 11m
Waxing Crescent, 46% of the Moon is Illuminated
May 6
Waxing Crescent
May 6
First Quarter
May 14
Full
May 21
Last Quarter
May 28
New

Hourly Weather History & Observations

Time (EDT) Temp. Windchill Dew Point Humidity Pressure Visibility Wind Dir Wind Speed Gust Speed Precip Events Conditions
12:51 AM 46.0 °F 43.9 °F 34.0 °F 63% 30.00 in 10.0 mi NE 4.6 mph - N/A   Partly Cloudy
1:51 AM 43.0 °F 38.8 °F 35.1 °F 74% 30.01 in 10.0 mi NNE 6.9 mph - N/A   Scattered Clouds
2:51 AM 43.0 °F 39.5 °F 37.9 °F 82% 30.02 in 10.0 mi NNE 5.8 mph - N/A   Scattered Clouds
3:51 AM 44.1 °F 41.5 °F 37.0 °F 76% 30.01 in 10.0 mi NE 4.6 mph - N/A   Scattered Clouds
7:51 AM 46.4 °F 42.9 °F 41.0 °F 81% 30.07 in 10.0 mi NNE 6.9 mph - N/A   Scattered Clouds
8:51 AM 50.0 °F - 37.9 °F 63% 30.09 in 10.0 mi NNE 10.4 mph - N/A   Scattered Clouds
10:51 AM 55.0 °F - 36.0 °F 49% 30.10 in 10.0 mi North 6.9 mph - N/A   Scattered Clouds
11:51 AM 55.9 °F - 37.9 °F 51% 30.10 in 10.0 mi NNW 8.1 mph - N/A   Partly Cloudy
12:51 PM 55.9 °F - 35.1 °F 45% 30.10 in 10.0 mi NNE 11.5 mph - N/A   Partly Cloudy
1:51 PM 55.9 °F - 37.9 °F 51% 30.09 in 10.0 mi North 11.5 mph - N/A   Scattered Clouds
2:51 PM 57.0 °F - 37.9 °F 49% 30.10 in 10.0 mi NNE 12.7 mph - N/A   Scattered Clouds
3:51 PM 57.0 °F - 36.0 °F 45% 30.09 in 10.0 mi North 12.7 mph - N/A   Mostly Cloudy
4:51 PM 57.9 °F - 35.1 °F 42% 30.08 in 10.0 mi NE 13.8 mph - N/A   Mostly Cloudy
5:51 PM 57.9 °F - 33.1 °F 39% 30.09 in 10.0 mi NE 12.7 mph - N/A   Mostly Cloudy
6:51 PM 57.0 °F - 35.1 °F 44% 30.08 in 10.0 mi NE 16.1 mph - N/A   Mostly Cloudy
7:51 PM 55.0 °F - 35.1 °F 47% 30.08 in 10.0 mi NNE 12.7 mph - N/A   Scattered Clouds
8:51 PM 54.0 °F - 37.0 °F 53% 30.08 in 10.0 mi NNE 10.4 mph - N/A   Mostly Cloudy
9:51 PM 53.1 °F - 37.0 °F 55% 30.09 in 10.0 mi NE 8.1 mph - N/A   Mostly Cloudy
10:51 PM 54.0 °F - 34.0 °F 47% 30.10 in 10.0 mi East 6.9 mph - N/A   Mostly Cloudy
11:51 PM 54.0 °F - 32.0 °F 43% 30.09 in 10.0 mi ENE 8.1 mph - N/A   Mostly Cloudy